This is the latest recevied weather packets stored in our database for station/object DL4SAV. If no packets are shown the sender has not sent any weather packets the latest 10 day(s).
| Time | Temp. | Humidity | Pressure | Rain* | Wind** | Luminosity | Snow |
|---|---|---|---|---|---|---|---|
| 1788267515 | 22.22° C | 51% | 1021.2 hPa | 0 mm | - | - | - |
| 1788267215 | 22.22° C | 51% | 1021.2 hPa | 0 mm | - | - | - |
| 1788266914 | 21.67° C | 51% | 1021.3 hPa | 0 mm | - | - | - |
| 1788266614 | 21.67° C | 51% | 1021.4 hPa | 0 mm | - | - | - |
| 1788266314 | 21.11° C | 52% | 1021.3 hPa | 0 mm | - | - | - |
| 1788266013 | 21.67° C | 52% | 1021.3 hPa | 0 mm | - | - | - |
| 1788265713 | 21.67° C | 52% | 1021.2 hPa | 0 mm | - | - | - |
| 1788265413 | 21.67° C | 52% | 1021.2 hPa | 0 mm | - | - | - |
| 1788265113 | 21.67° C | 53% | 1021.3 hPa | 0 mm | - | - | - |
| 1788264812 | 21.67° C | 53% | 1021.3 hPa | 0 mm | - | - | - |
| 1788264512 | 21.67° C | 53% | 1021.4 hPa | 0 mm | - | - | - |
| 1788264212 | 21.67° C | 52% | 1021.4 hPa | 0 mm | - | - | - |
| 1788263911 | 21.11° C | 54% | 1021.5 hPa | 0 mm | - | - | - |
| 1788263611 | 21.67° C | 53% | 1021.5 hPa | 0 mm | - | - | - |
| 1788263311 | 21.67° C | 55% | 1021.3 hPa | 0 mm | - | - | - |
| 1788263011 | 21.11° C | 56% | 1021.3 hPa | 0 mm | - | - | - |
| 1788262710 | 21.11° C | 58% | 1021.4 hPa | 0 mm | - | - | - |
| 1788262410 | 20.56° C | 57% | 1021.5 hPa | 0 mm | - | - | - |
| 1788262110 | 20.56° C | 58% | 1021.5 hPa | 0 mm | - | - | - |
| 1788261809 | 20° C | 58% | 1021.5 hPa | 0 mm | - | - | - |
| 1788261509 | 20° C | 60% | 1021.5 hPa | 0 mm | - | - | - |
| 1788261209 | 20° C | 59% | 1021.5 hPa | 0 mm | - | - | - |
| 1788260909 | 20.56° C | 59% | 1021.5 hPa | 0 mm | - | - | - |
| 1788260608 | 20.56° C | 59% | 1021.6 hPa | 0 mm | - | - | - |
| 1788260308 | 20.56° C | 59% | 1021.5 hPa | 0 mm | - | - | - |
* Rain latest hour (hover to see other rain measurements)
** Current wind speed in m/s (hover to see current wind gust speed)